W6NJB Weather Reports


time (UTC)temp
C
wind
direction
speed
KPH
gust
KPH
rain 1hr
cm
rain 24hr
cm
rain mn
cm
humidity
%
barometer
mb
20260906150515 34 250 1.6 6.4 0.00 0.00 0.00 49 1014.4
20260906150027 34 283 1.6 6.4 0.00 0.00 0.00 49 1014.3
20260906145516 33 286 1.6 6.4 0.00 0.00 0.00 50 1014.4
20260906145016 33 291 1.6 6.4 0.00 0.00 0.00 50 1014.4
20260906144527 33 298 1.6 6.4 0.00 0.00 0.00 50 1014.4
20260906144006 33 108 1.6 4.8 0.00 0.00 0.00 51 1014.4
20260906143509 33 112 1.6 4.8 0.00 0.00 0.00 52 1014.5
20260906143012 33 117 1.6 4.8 0.00 0.00 0.00 53 1014.6
20260906142507 32 138 0.0 4.8 0.00 0.00 0.00 54 1014.7
20260906142009 32 342 0.0 4.8 0.00 0.00 0.00 54 1014.8
20260906141518 32 34 0.0 4.8 0.00 0.00 0.00 55 1014.8
20260906141016 32 151 0.0 4.8 0.00 0.00 0.00 56 1014.7
20260906140514 31 40 0.0 3.2 0.00 0.00 0.00 57 1014.7
20260906140033 31 60 1.6 4.8 0.00 0.00 0.00 60 1014.8
20260906135516 31 360 1.6 4.8 0.00 0.00 0.00 60 1014.7
20260906135018 30 77 1.6 4.8 0.00 0.00 0.00 61 1014.7
20260906134530 30 76 0.0 3.2 0.00 0.00 0.00 63 1014.7
20260906134017 29 288 0.0 1.6 0.00 0.00 0.00 66 1014.6
20260906133517 28 288 0.0 1.6 0.00 0.00 0.00 69 1014.6
20260906133033 28 288 0.0 0.0 0.00 0.00 0.00 70 1014.6
20260906132508 27 288 0.0 0.0 0.00 0.00 0.00 72 1014.6
20260906132007 27 288 0.0 0.0 0.00 0.00 0.00 76 1014.5
20260906131514 26 288 0.0 0.0 0.00 0.00 0.00 78 1014.5
20260906131011 26 288 0.0 0.0 0.00 0.00 0.00 80 1014.5
20260906130512 25 288 0.0 0.0 0.00 0.00 0.00 81 1014.4
20260906130033 25 290 0.0 1.6 0.00 0.00 0.00 82 1014.4
20260906125514 24 290 0.0 1.6 0.00 0.00 0.00 83 1014.5
20260906125019 23 67 0.0 1.6 0.00 0.00 0.00 84 1014.4
20260906124528 23 67 0.0 0.0 0.00 0.00 0.00 85 1014.4
20260906124017 23 67 0.0 0.0 0.00 0.00 0.00 85 1014.3
20260906123517 23 67 0.0 1.6 0.00 0.00 0.00 85 1014.3
20260906123040 23 67 0.0 1.6 0.00 0.00 0.00 86 1014.2
20260906122522 22 67 0.0 1.6 0.00 0.00 0.00 86 1014.2
20260906122019 22 67 0.0 3.2 0.00 0.00 0.00 86 1014.0
20260906121530 22 67 0.0 3.2 0.00 0.00 0.00 86 1013.9
20260906121010 22 67 0.0 6.4 0.00 0.00 0.00 87 1013.9
20260906120512 22 49 1.6 6.4 0.00 0.00 0.00 87 1013.8
20260906120025 22 350 0.0 3.2 0.00 0.00 0.00 86 1013.6
20260906115510 22 301 0.0 0.0 0.00 0.00 0.00 86 1013.5
20260906115014 22 301 0.0 0.0 0.00 0.00 0.00 87 1013.4
20260906114507 22 301 0.0 0.0 0.00 0.00 0.00 87 1013.4
20260906114002 22 301 0.0 0.0 0.00 0.00 0.00 86 1013.3
20260906113502 22 301 0.0 1.6 0.00 0.00 0.00 86 1013.2
20260906113008 22 301 0.0 1.6 0.00 0.00 0.00 86 1013.2
20260906112506 22 301 0.0 1.6 0.00 0.00 0.00 86 1013.1
20260906112008 22 301 0.0 0.0 0.00 0.00 0.00 86 1013.1
20260906111511 22 301 0.0 0.0 0.00 0.00 0.00 86 1013.0
20260906111010 22 301 0.0 0.0 0.00 0.00 0.00 86 1013.1
20260906110509 22 301 0.0 0.0 0.00 0.00 0.00 86 1013.0
20260906110015 22 301 0.0 0.0 0.00 0.00 0.00 86 1013.0
20260906105513 22 301 0.0 0.0 0.00 0.00 0.00 86 1013.0
20260906105017 22 301 0.0 0.0 0.00 0.00 0.00 86 1013.0
20260906104503 22 301 0.0 0.0 0.00 0.00 0.00 86 1013.0
20260906104004 22 301 0.0 0.0 0.00 0.00 0.00 86 1013.0
20260906103503 22 301 0.0 0.0 0.00 0.00 0.00 86 1013.0
20260906103011 22 301 0.0 0.0 0.00 0.00 0.00 86 1013.0
20260906102506 22 301 0.0 0.0 0.00 0.00 0.00 86 1013.1
20260906102009 22 301 0.0 0.0 0.00 0.00 0.00 86 1013.0
20260906101509 22 301 0.0 0.0 0.00 0.00 0.00 85 1013.0
20260906101009 22 301 0.0 0.0 0.00 0.00 0.00 85 1013.0
20260906100508 22 301 0.0 0.0 0.00 0.00 0.00 86 1013.0
20260906100025 23 301 0.0 0.0 0.00 0.00 0.00 86 1013.0
20260906095508 23 301 0.0 0.0 0.00 0.00 0.00 86 1013.0
20260906095016 23 301 0.0 0.0 0.00 0.00 0.00 85 1012.9
20260906094531 23 301 0.0 0.0 0.00 0.00 0.00 85 1012.9
20260906094015 23 301 0.0 0.0 0.00 0.00 0.00 84 1012.9
20260906093516 23 301 0.0 0.0 0.00 0.00 0.00 84 1012.9
20260906093013 23 301 0.0 0.0 0.00 0.00 0.00 84 1012.8
20260906092503 23 301 0.0 0.0 0.00 0.00 0.00 84 1012.8
20260906092007 23 301 0.0 0.0 0.00 0.00 0.00 84 1012.9
20260906091517 23 301 0.0 1.6 0.00 0.00 0.00 84 1012.8
20260906091008 23 301 0.0 1.6 0.00 0.00 0.00 84 1012.8
20260906090507 23 301 0.0 0.0 0.00 0.00 0.00 84 1012.7
20260906090016 23 301 0.0 0.0 0.00 0.00 0.00 84 1012.7
20260906085510 23 301 0.0 0.0 0.00 0.00 0.00 84 1012.7
20260906085009 23 301 0.0 0.0 0.00 0.00 0.00 84 1012.7
20260906084519 23 301 0.0 0.0 0.00 0.00 0.00 84 1012.7
20260906084010 23 301 0.0 0.0 0.00 0.00 0.00 84 1012.7
20260906083514 23 301 0.0 0.0 0.00 0.00 0.00 84 1012.7
20260906083028 23 301 0.0 0.0 0.00 0.00 0.00 83 1012.7
20260906082514 23 301 0.0 0.0 0.00 0.00 0.00 84 1012.7
20260906082014 23 301 0.0 0.0 0.00 0.00 0.00 84 1012.7
20260906081505 23 301 0.0 0.0 0.00 0.00 0.00 84 1012.7
20260906081003 23 301 0.0 0.0 0.00 0.00 0.00 83 1012.7
20260906080503 23 301 0.0 0.0 0.00 0.00 0.00 83 1012.7
20260906080010 23 302 0.0 0.0 0.00 0.00 0.00 83 1012.6
20260906075507 23 302 0.0 0.0 0.00 0.00 0.00 83 1012.7
20260906075009 23 302 0.0 0.0 0.00 0.00 0.00 83 1012.7
20260906074517 23 302 0.0 0.0 0.00 0.00 0.00 83 1012.7
20260906074012 23 302 0.0 0.0 0.00 0.00 0.00 83 1012.8
20260906073512 23 302 0.0 0.0 0.00 0.00 0.00 82 1012.8
20260906073025 23 302 0.0 0.0 0.00 0.00 0.00 82 1012.9
20260906072515 23 302 0.0 0.0 0.00 0.00 0.00 83 1013.0
20260906072016 23 302 0.0 0.0 0.00 0.00 0.00 82 1013.1
20260906071528 23 302 0.0 0.0 0.00 0.00 0.00 81 1013.1
20260906071014 23 302 0.0 0.0 0.00 0.00 0.00 82 1013.1
20260906070503 23 302 0.0 0.0 0.00 0.00 0.00 81 1013.0
20260906070017 23 302 0.0 0.0 0.00 0.00 0.00 81 1013.0
20260906065510 23 302 0.0 0.0 0.00 0.00 0.00 81 1013.1
20260906065010 23 302 0.0 0.0 0.00 0.00 0.00 81 1013.0
20260906064514 23 302 0.0 0.0 0.00 0.00 0.00 81 1013.0
20260906064014 23 302 0.0 0.0 0.00 0.00 0.00 81 1013.0
20260906063511 24 302 0.0 0.0 0.00 0.00 0.00 81 1013.1
20260906063024 24 302 0.0 0.0 0.00 0.00 0.00 81 1013.2
20260906062514 24 302 0.0 0.0 0.00 0.00 0.00 81 1013.1
20260906062014 24 302 0.0 0.0 0.00 0.00 0.00 80 1013.1
20260906061526 24 302 0.0 0.0 0.00 0.00 0.00 80 1013.2
20260906061015 24 302 0.0 0.0 0.00 0.00 0.00 80 1013.1
20260906060517 24 302 0.0 0.0 0.00 0.00 0.00 80 1013.0
20260906060033 24 302 0.0 0.0 0.00 0.00 0.00 80 1013.1
20260906055517 24 302 0.0 0.0 0.00 0.00 0.00 79 1013.1
20260906055004 24 302 0.0 1.6 0.00 0.00 0.00 80 1013.1
20260906054513 24 302 0.0 1.6 0.00 0.00 0.00 79 1013.1
20260906054008 24 302 0.0 0.0 0.00 0.00 0.00 79 1013.2
20260906053507 25 302 0.0 0.0 0.00 0.00 0.00 79 1013.1
20260906053019 25 302 0.0 0.0 0.00 0.00 0.00 79 1013.1
20260906052512 25 302 0.0 0.0 0.00 0.00 0.00 78 1013.0
20260906052012 25 301 0.0 0.0 0.00 0.00 0.00 78 1013.0
20260906051531 25 302 0.0 0.0 0.00 0.00 0.00 78 1012.8
20260906051017 25 302 0.0 0.0 0.00 0.00 0.00 78 1012.7
20260906050518 25 302 0.0 0.0 0.00 0.00 0.00 78 1012.6
20260906050038 25 302 0.0 0.0 0.00 0.00 0.00 77 1012.6
20260906045516 25 302 0.0 1.6 0.00 0.00 0.00 77 1012.6
20260906045016 25 302 0.0 1.6 0.00 0.00 0.00 77 1012.6
20260906044534 25 302 0.0 1.6 0.00 0.00 0.00 77 1012.5
20260906044007 25 302 0.0 0.0 0.00 0.00 0.00 76 1012.5
20260906043512 25 302 0.0 0.0 0.00 0.00 0.00 76 1012.6
20260906043012 25 302 0.0 0.0 0.00 0.00 0.00 76 1012.5
20260906042510 25 302 0.0 0.0 0.00 0.00 0.00 76 1012.5
20260906042004 25 302 0.0 0.0 0.00 0.00 0.00 76 1012.6
20260906041504 25 302 0.0 0.0 0.00 0.00 0.00 76 1012.7
20260906041005 25 302 0.0 0.0 0.00 0.00 0.00 75 1012.8
20260906040507 26 302 0.0 0.0 0.00 0.00 0.00 75 1012.8
20260906040004 26 302 0.0 0.0 0.00 0.00 0.00 75 1012.7
20260906035504 26 302 0.0 0.0 0.00 0.00 0.00 74 1012.7
20260906035007 26 302 0.0 0.0 0.00 0.00 0.00 74 1012.7
20260906034505 26 302 0.0 0.0 0.00 0.00 0.00 73 1012.7
20260906034004 26 302 0.0 0.0 0.00 0.00 0.00 73 1012.8
20260906033504 26 302 0.0 0.0 0.00 0.00 0.00 73 1012.8
20260906033006 26 302 0.0 0.0 0.00 0.00 0.00 74 1012.8
20260906032506 26 302 0.0 0.0 0.00 0.00 0.00 73 1012.9
20260906032006 26 302 0.0 0.0 0.00 0.00 0.00 72 1013.0
20260906031516 26 302 0.0 0.0 0.00 0.00 0.00 72 1013.0
20260906031005 26 302 0.0 1.6 0.00 0.00 0.00 72 1013.1
20260906030503 26 302 0.0 1.6 0.00 0.00 0.00 72 1013.1
20260906030010 27 302 0.0 0.0 0.00 0.00 0.00 70 1013.1
20260906025508 27 302 0.0 0.0 0.00 0.00 0.00 70 1013.1
20260906025006 27 302 0.0 0.0 0.00 0.00 0.00 70 1013.0
20260906024517 27 302 0.0 0.0 0.00 0.00 0.00 69 1012.9
20260906024004 27 302 0.0 0.0 0.00 0.00 0.00 68 1012.9
20260906023506 27 302 0.0 0.0 0.00 0.00 0.00 67 1012.8
20260906023007 27 302 0.0 0.0 0.00 0.00 0.00 66 1012.7
20260906022506 28 301 0.0 0.0 0.00 0.00 0.00 67 1012.7
20260906022006 28 302 0.0 0.0 0.00 0.00 0.00 67 1012.6
20260906021509 28 302 0.0 0.0 0.00 0.00 0.00 66 1012.4
20260906021008 28 302 0.0 0.0 0.00 0.00 0.00 65 1012.2
20260906020506 28 302 0.0 0.0 0.00 0.00 0.00 64 1012.2
20260906020005 28 302 0.0 0.0 0.00 0.00 0.00 64 1012.0
20260906015503 29 302 0.0 1.6 0.00 0.00 0.00 64 1011.9
20260906015006 29 302 0.0 1.6 0.00 0.00 0.00 63 1011.9
20260906014515 30 302 0.0 1.6 0.00 0.00 0.00 62 1011.9
20260906014004 30 302 0.0 0.0 0.00 0.00 0.00 59 1011.8
20260906013506 30 302 0.0 0.0 0.00 0.00 0.00 59 1011.7
20260906013004 30 302 0.0 0.0 0.00 0.00 0.00 58 1011.6
20260906012509 30 302 0.0 0.0 0.00 0.00 0.00 56 1011.6
20260906012006 31 302 0.0 1.6 0.00 0.00 0.00 56 1011.5
20260906011507 31 302 0.0 1.6 0.00 0.00 0.00 55 1011.5
20260906011008 31 302 0.0 3.2 0.00 0.00 0.00 54 1011.5
20260906010507 31 302 0.0 3.2 0.00 0.00 0.00 54 1011.4
20260906010022 31 133 0.0 1.6 0.00 0.00 0.00 53 1011.3
20260906005507 31 133 0.0 4.8 0.00 0.00 0.00 52 1011.4
20260906005008 32 189 0.0 4.8 0.00 0.00 0.00 51 1011.4
20260906004508 32 112 0.0 3.2 0.00 0.00 0.00 50 1011.3
20260906004007 33 112 0.0 0.0 0.00 0.00 0.00 50 1011.3
20260906003511 33 112 0.0 0.0 0.00 0.00 0.00 48 1011.2
20260906003010 33 112 0.0 0.0 0.00 0.00 0.00 48 1011.3
20260906002505 34 112 0.0 0.0 0.00 0.00 0.00 47 1011.3
20260906002008 34 112 0.0 0.0 0.00 0.00 0.00 46 1011.3
20260906001507 35 112 0.0 3.2 0.00 0.00 0.00 45 1011.4
20260906001006 35 112 0.0 6.4 0.00 0.00 0.00 44 1011.4
20260906000506 35 123 0.0 6.4 0.00 0.00 0.00 45 1011.5
20260906000018 35 124 0.0 1.6 0.00 0.00 0.00 45 1011.5
20260905235509 35 124 0.0 3.2 0.00 0.00 0.00 44 1011.5
20260905235012 35 108 0.0 6.4 0.00 0.00 0.00 44 1011.5
20260905234511 36 159 0.0 8.0 0.00 0.00 0.00 44 1011.5
20260905234009 36 178 3.2 8.0 0.00 0.00 0.00 43 1011.4
20260905233509 36 185 0.0 3.2 0.00 0.00 0.00 43 1011.4
20260905233012 36 184 1.6 6.4 0.00 0.00 0.00 43 1011.5
20260905232508 36 165 0.0 6.4 0.00 0.00 0.00 44 1011.4
20260905232010 36 188 1.6 4.8 0.00 0.00 0.00 44 1011.5
20260905231512 36 159 1.6 8.0 0.00 0.00 0.00 44 1011.5
20260905231007 36 71 3.2 8.0 0.00 0.00 0.00 44 1011.5
20260905230507 36 101 1.6 8.0 0.00 0.00 0.00 44 1011.4
20260905230028 36 157 0.0 3.2 0.00 0.00 0.00 45 1011.4
20260905225509 35 254 0.0 3.2 0.00 0.00 0.00 45 1011.4
20260905225006 35 185 0.0 4.8 0.00 0.00 0.00 45 1011.4
20260905224518 35 257 0.0 6.4 0.00 0.00 0.00 44 1011.4
20260905224008 35 142 1.6 6.4 0.00 0.00 0.00 44 1011.5
20260905223510 36 177 1.6 8.0 0.00 0.00 0.00 44 1011.5
20260905223027 36 122 0.0 8.0 0.00 0.00 0.00 44 1011.5
20260905222510 36 126 3.2 11.3 0.00 0.00 0.00 43 1011.5
20260905222009 36 40 3.2 11.3 0.00 0.00 0.00 43 1011.6
20260905221516 36 159 3.2 11.3 0.00 0.00 0.00 43 1011.5
20260905221006 36 123 1.6 9.7 0.00 0.00 0.00 45 1011.5
20260905220512 36 211 0.0 11.3 0.00 0.00 0.00 46 1011.5
20260905220022 36 237 3.2 14.5 0.00 0.00 0.00 45 1011.5
20260905215508 35 130 3.2 14.5 0.00 0.00 0.00 46 1011.5
20260905215009 35 222 4.8 11.3 0.00 0.00 0.00 46 1011.5
20260905214516 35 160 1.6 11.3 0.00 0.00 0.00 45 1011.6
20260905214010 36 134 1.6 12.9 0.00 0.00 0.00 44 1011.6
20260905213512 37 155 4.8 14.5 0.00 0.00 0.00 40 1011.5
20260905213016 37 122 1.6 16.1 0.00 0.00 0.00 38 1011.3
20260905212510 37 95 3.2 16.1 0.00 0.00 0.00 37 1011.2
20260905212012 37 132 1.6 12.9 0.00 0.00 0.00 36 1011.3
20260905211539 38 105 1.6 17.7 0.00 0.00 0.00 36 1011.3
20260905211010 38 82 3.2 17.7 0.00 0.00 0.00 36 1011.3
20260905210512 38 162 6.4 14.5 0.00 0.00 0.00 34 1011.4
20260905210019 38 352 3.2 12.9 0.00 0.00 0.00 34 1011.5
20260905205509 38 234 1.6 4.8 0.00 0.00 0.00 34 1011.5
20260905205010 37 170 0.0 4.8 0.00 0.00 0.00 35 1011.6
20260905204519 37 130 1.6 4.8 0.00 0.00 0.00 36 1011.6
20260905204013 38 156 0.0 3.2 0.00 0.00 0.00 35 1011.7
20260905203511 38 121 0.0 4.8 0.00 0.00 0.00 34 1011.8
20260905203018 38 121 1.6 11.3 0.00 0.00 0.00 33 1011.8
20260905202513 39 101 3.2 11.3 0.00 0.00 0.00 33 1011.9
20260905202009 39 11 0.0 11.3 0.00 0.00 0.00 32 1012.0
20260905201525 40 228 1.6 11.3 0.00 0.00 0.00 32 1012.0
20260905201011 40 34 1.6 8.0 0.00 0.00 0.00 32 1012.0
20260905200513 39 330 3.2 9.7 0.00 0.00 0.00 33 1012.1
20260905200021 39 5 3.2 9.7 0.00 0.00 0.00 33 1012.2
20260905195512 38 309 1.6 16.1 0.00 0.00 0.00 32 1012.2
20260905195012 39 248 11.3 16.1 0.00 0.00 0.00 32 1012.3
20260905194518 38 283 6.4 12.9 0.00 0.00 0.00 33 1012.4
20260905194014 38 242 3.2 12.9 0.00 0.00 0.00 33 1012.4
20260905193514 38 232 1.6 16.1 0.00 0.00 0.00 34 1012.5
20260905193018 38 15 4.8 16.1 0.00 0.00 0.00 34 1012.6
20260905192513 38 226 3.2 16.1 0.00 0.00 0.00 35 1012.6
20260905192013 38 193 4.8 16.1 0.00 0.00 0.00 34 1012.7
20260905191522 38 360 3.2 12.9 0.00 0.00 0.00 35 1012.8
20260905191012 37 234 6.4 14.5 0.00 0.00 0.00 36 1013.0
20260905190502 37 273 6.4 14.5 0.00 0.00 0.00 36 1013.0
20260905190004 37 263 6.4 14.5 0.00 0.00 0.00 36 1013.1
20260905185502 38 340 1.6 9.7 0.00 0.00 0.00 36 1013.1
20260905185006 38 107 1.6 9.7 0.00 0.00 0.00 36 1013.2
20260905184509 38 254 3.2 8.0 0.00 0.00 0.00 35 1013.3
20260905184007 38 349 1.6 8.0 0.00 0.00 0.00 35 1013.3
20260905183510 38 136 0.0 8.0 0.00 0.00 0.00 35 1013.4
20260905183015 38 36 3.2 8.0 0.00 0.00 0.00 36 1013.5
20260905182509 38 25 1.6 11.3 0.00 0.00 0.00 36 1013.5
20260905182012 38 114 1.6 12.9 0.00 0.00 0.00 36 1013.7
20260905181520 38 295 4.8 17.7 0.00 0.00 0.00 35 1013.7
20260905181010 38 254 3.2 17.7 0.00 0.00 0.00 36 1013.6
20260905180517 38 202 4.8 12.9 0.00 0.00 0.00 36 1013.7
20260905180025 37 206 1.6 14.5 0.00 0.00 0.00 37 1013.7
20260905175518 37 352 4.8 14.5 0.00 0.00 0.00 37 1013.8
20260905175003 37 202 3.2 14.5 0.00 0.00 0.00 38 1013.9
20260905174504 37 119 4.8 14.5 0.00 0.00 0.00 40 1013.9
20260905174007 37 238 4.8 14.5 0.00 0.00 0.00 37 1014.0
20260905173507 37 352 1.6 6.4 0.00 0.00 0.00 37 1014.1
20260905173027 37 349 1.6 6.4 0.00 0.00 0.00 37 1014.2
20260905172508 37 5 1.6 6.4 0.00 0.00 0.00 39 1014.2
20260905172011 36 10 0.0 12.9 0.00 0.00 0.00 40 1014.3
20260905171518 36 250 4.8 12.9 0.00 0.00 0.00 40 1014.4
20260905171012 36 272 6.4 12.9 0.00 0.00 0.00 39 1014.4
20260905170510 37 227 3.2 12.9 0.00 0.00 0.00 40 1014.5
20260905170023 36 34 4.8 12.9 0.00 0.00 0.00 40 1014.5
20260905165514 37 271 4.8 12.9 0.00 0.00 0.00 40 1014.6
20260905165017 37 61 1.6 11.3 0.00 0.00 0.00 41 1014.7
20260905164526 37 100 1.6 11.3 0.00 0.00 0.00 41 1014.6
20260905164019 37 240 4.8 14.5 0.00 0.00 0.00 41 1014.7
20260905163506 37 352 1.6 14.5 0.00 0.00 0.00 41 1014.7
20260905163012 36 142 1.6 11.3 0.00 0.00 0.00 43 1014.7
20260905162510 36 51 1.6 11.3 0.00 0.00 0.00 44 1014.8
20260905162008 36 268 4.8 11.3 0.00 0.00 0.00 43 1014.9
20260905161515 36 240 3.2 9.7 0.00 0.00 0.00 44 1015.0
20260905161011 36 25 3.2 14.5 0.00 0.00 0.00 43 1015.1
20260905160512 36 258 8.0 14.5 0.00 0.00 0.00 44 1015.2
20260905160018 36 242 4.8 11.3 0.00 0.00 0.00 45 1015.1
20260905155513 35 345 4.8 11.3 0.00 0.00 0.00 46 1015.1
20260905155014 35 109 1.6 14.5 0.00 0.00 0.00 46 1015.1
20260905154527 35 309 3.2 14.5 0.00 0.00 0.00 46 1015.2
20260905154017 35 223 4.8 12.9 0.00 0.00 0.00 46 1015.3
20260905153516 35 278 3.2 14.5 0.00 0.00 0.00 45 1015.2
20260905153027 35 67 1.6 14.5 0.00 0.00 0.00 47 1015.2
20260905152518 35 286 3.2 8.0 0.00 0.00 0.00 48 1015.2
20260905152008 34 5 1.6 12.9 0.00 0.00 0.00 49 1015.2
20260905151510 34 317 4.8 12.9 0.00 0.00 0.00 49 1015.3
20260905151005 33 22 0.0 6.4 0.00 0.00 0.00 51 1015.3